Weather History for KBIV - April, 2013

Change the Weather History Date:

Friday, April 12, 2013

  Actual Average Record
Temperature  
Mean Temperature 40 °F 47 °F  
Max Temperature 43 °F 57 °F - ()
Min Temperature 37 °F 37 °F - ()
Degree Days  
Heating Degree Days 25 18  
Month to date heating degree days 283 242  
Since 1 July heating degree days 5525 5616  
Cooling Degree Days 0 0  
Month to date cooling degree days 0 0  
Year to date cooling degree days 0 0  
Moisture  
Dew Point 35 °F    
Average Humidity 81    
Maximum Humidity 92    
Minimum Humidity 70    
Precipitation  
Precipitation 0.18 in 0.11 in - ()
Month to date precipitation 3.50 1.03  
Year to date precipitation 10.26 7.19  
Sea Level Pressure  
Sea Level Pressure 29.64 in    
Wind  
Wind Speed 14 mph (SSW)    
Max Wind Speed 25 mph    
Max Gust Speed 33 mph    
Visibility 6 miles    
Events Rain    
T = Trace of Precipitation, MM = Missing Value Source: NWS Daily Summary

Daily Weather History Graph

Daily Weather History Graph

Search for Another Location

Airport or City:

Trip Planner

Search our weather history database for the weather conditions in past years. The results will help you decide how hot, cold, wet, or windy it might be!

Date:

Astronomy

Apr. 12, 2013 Rise Set
Actual Time 7:07 AM EDT 8:23 PM EDT
Civil Twilight 6:38 AM EDT 8:52 PM EDT
Nautical Twilight 6:03 AM EDT 9:27 PM EDT
Astronomical Twilight 5:26 AM EDT 10:04 PM EDT
Moon 8:13 AM EDT (4/12) 10:57 PM EDT (4/12)
Length of Visible Light 14h 14m
Length of Day
13h 16m
Waxing Crescent, 5% of the Moon is Illuminated
Apr 12
Waxing Crescent
Apr 18
First Quarter
Apr 25
Full
May 2
Last Quarter
May 9
New

Hourly Weather History & Observations

Time (EDT) Temp. Windchill Dew Point Humidity Pressure Visibility Wind Dir Wind Speed Gust Speed Precip Events Conditions
12:53 AM 37.9 °F 29.6 °F 36.0 °F 93% 29.63 in 7.0 mi East 13.8 mph 23.0 mph 0.07 in Rain Light Rain
1:53 AM 37.9 °F 29.6 °F 35.1 °F 89% 29.62 in 10.0 mi East 13.8 mph - 0.03 in   Overcast
2:53 AM 37.0 °F 29.3 °F 35.1 °F 93% 29.61 in 10.0 mi East 11.5 mph - 0.02 in   Overcast
3:53 AM 37.0 °F 29.8 °F 35.1 °F 93% 29.60 in 10.0 mi ESE 10.4 mph - N/A   Overcast
4:53 AM 37.0 °F 31.6 °F 35.1 °F 93% 29.60 in 4.0 mi East 6.9 mph - N/A   Overcast
5:29 AM 37.4 °F 30.3 °F 35.6 °F 93% 29.57 in 2.5 mi East 10.4 mph - N/A   Overcast
5:50 AM 37.4 °F 29.8 °F 33.8 °F 87% 29.56 in 3.0 mi East 11.5 mph - 0.01 in   Overcast
5:53 AM 37.0 °F 28.5 °F 34.0 °F 89% 29.58 in 4.0 mi East 13.8 mph - 0.01 in   Overcast
6:36 AM 37.4 °F 30.3 °F 33.8 °F 87% 29.56 in 2.5 mi ESE 10.4 mph - N/A   Overcast
6:53 AM 37.0 °F 30.4 °F 34.0 °F 89% 29.57 in 2.0 mi ESE 9.2 mph - N/A   Overcast
7:24 AM 37.4 °F 33.8 °F 37.4 °F 100% 29.56 in 2.5 mi SE 4.6 mph - 0.01 in   Overcast
7:31 AM 37.4 °F 34.9 °F 35.6 °F 93% 29.56 in 2.0 mi SE 3.5 mph - 0.01 in   Overcast
7:39 AM 37.4 °F 34.9 °F 35.6 °F 93% 29.56 in 1.5 mi SE 3.5 mph - 0.01 in   Overcast
7:46 AM 37.4 °F 33.8 °F 35.6 °F 93% 29.56 in 1.2 mi SE 4.6 mph - 0.01 in   Overcast
7:53 AM 37.0 °F 33.3 °F 36.0 °F 96% 29.58 in 1.0 mi SSE 4.6 mph - 0.02 in   Overcast
8:15 AM 39.2 °F 33.0 °F 37.4 °F 93% 29.57 in 1.5 mi WSW 9.2 mph - 0.01 in   Overcast
8:26 AM 39.2 °F 32.0 °F 35.6 °F 87% 29.57 in 3.0 mi WSW 11.5 mph - 0.01 in   Overcast
8:40 AM 39.2 °F 32.0 °F 35.6 °F 87% 29.58 in 10.0 mi WSW 11.5 mph - 0.01 in   Overcast
8:53 AM 39.9 °F 32.5 °F 36.0 °F 86% 29.59 in 10.0 mi SW 12.7 mph - 0.01 in   Overcast
9:53 AM 39.9 °F 31.4 °F 37.0 °F 89% 29.60 in 10.0 mi SW 16.1 mph - 0.00 in Rain Light Rain
10:30 AM 41.0 °F 33.1 °F 37.4 °F 87% 29.59 in 10.0 mi WSW 15.0 mph 21.9 mph 0.00 in   Overcast
10:39 AM 41.0 °F 32.2 °F 35.6 °F 81% 29.59 in 10.0 mi WSW 18.4 mph 25.3 mph 0.00 in   Overcast
10:53 AM 41.0 °F 31.9 °F 35.1 °F 79% 29.61 in 10.0 mi WSW 19.6 mph 26.5 mph 0.00 in   Overcast
11:53 AM 41.0 °F 31.4 °F 34.0 °F 76% 29.63 in 10.0 mi SW 21.9 mph 26.5 mph N/A   Overcast
12:53 PM 41.0 °F 32.5 °F 33.1 °F 73% 29.64 in 10.0 mi SW 17.3 mph 25.3 mph N/A   Overcast
1:53 PM 42.1 °F 32.6 °F 33.1 °F 70% 29.64 in 10.0 mi SW 23.0 mph 33.4 mph N/A   Overcast
2:07 PM 42.8 °F 33.8 °F 35.6 °F 76% 29.63 in 7.0 mi SW 21.9 mph 28.8 mph N/A   Overcast
2:53 PM 42.1 °F 33.9 °F 34.0 °F 73% 29.65 in 10.0 mi SW 17.3 mph 25.3 mph 0.00 in   Overcast
3:53 PM 43.0 °F 34.8 °F 33.1 °F 68% 29.67 in 10.0 mi SW 18.4 mph 26.5 mph N/A   Overcast
4:53 PM 43.0 °F 34.0 °F 34.0 °F 71% 29.68 in 10.0 mi SW 21.9 mph 28.8 mph N/A   Overcast
5:53 PM 43.0 °F 35.4 °F 34.0 °F 71% 29.70 in 10.0 mi SW 16.1 mph - N/A   Overcast
6:53 PM 43.0 °F 35.4 °F 35.1 °F 74% 29.73 in 10.0 mi SW 16.1 mph 21.9 mph N/A   Overcast
7:21 PM 42.8 °F 35.4 °F 37.4 °F 81% 29.72 in 3.0 mi WSW 15.0 mph - N/A   Haze
7:29 PM 41.0 °F 33.1 °F 37.4 °F 87% 29.72 in 3.0 mi WSW 15.0 mph - N/A   Overcast
7:53 PM 41.0 °F 33.9 °F 37.0 °F 86% 29.75 in 6.0 mi WSW 12.7 mph - 0.01 in   Overcast
8:36 PM 41.0 °F 35.8 °F 37.4 °F 87% 29.73 in 9.0 mi West 8.1 mph - N/A   Overcast
8:53 PM 41.0 °F 35.2 °F 37.0 °F 86% 29.75 in 4.0 mi WSW 9.2 mph - N/A   Overcast
9:00 PM 41.0 °F 34.7 °F 37.4 °F 87% 29.73 in 4.0 mi WSW 10.4 mph - N/A   Overcast
9:53 PM 41.0 °F 35.2 °F 37.0 °F 86% 29.76 in 6.0 mi West 9.2 mph - 0.02 in   Overcast
10:43 PM 39.2 °F 33.0 °F 35.6 °F 87% 29.77 in 6.0 mi West 9.2 mph - 0.03 in Rain Light Rain
10:53 PM 39.9 °F 33.4 °F 36.0 °F 86% 29.79 in 5.0 mi West 10.4 mph 18.4 mph 0.03 in Rain Light Rain
11:05 PM 39.2 °F 31.2 °F 35.6 °F 87% 29.78 in 4.0 mi West 13.8 mph 20.7 mph 0.02 in Rain Light Rain
11:53 PM 37.9 °F 27.9 °F 34.0 °F 86% 29.80 in 5.0 mi West 19.6 mph 27.6 mph 0.03 in Rain Light Rain